Location: Bernadets
(43.3537°N, 0.3167°E)
Time: 06:16:41
(UTC+00:00)

Cosmos 2344 - Pass Details

Date: 24 October 2021
Orbit: 1233 x 3009 km, 63.3° (Epoch: 02 December)

Event Time Altitude Azimuth Distance (km) Brightness Sun altitude
Rises 18:39:04 0° 323° (NW) 4,531 7.0 -18.4°
Reaches altitude 10° 18:41:40 10° 325° (NW) 3,689 6.5 -18.9°
Maximum altitude 18:50:58 79° 52° (NE) 1,913 4.3 -20.6°
Drops below altitude 10° 19:04:05 10° 140° (SE) 5,062 6.3 -22.9°
Enters shadow 19:04:08 10° 140° (SE) 5,077 6.3 -23.0°
